568  
ASUS41 KBTV 201710  
RWRBTV  
VERMONT REGIONAL WEATHER ROUNDUP  
NATIONAL WEATHER SERVICE BURLINGTON VT  
100 PM EDT SUN MAY 20 2018  
 
NOTE: "FAIR" INDICATES FEW OR NO CLOUDS BELOW 12,000 FEET WITH NO  
SIGNIFICANT WEATHER AND/OR S TO VISIBILITY
.  
 
* THESE REPORTS ARE NOT UNDER NWS QUALITY CONTROL AND/OR DO NOT  
REPORT WEATHER SUCH AS PRECIPITATION AND FOG.
 
 
VTZ001>019-201800-  
_____VERMONT_____  
 
 
CITY SKY/WX TMP DP RH WIND PRES REMARKS
 
BURLINGTON CLOUDY 65 55 70 NW8 29.92R  
MONTPELIER CLOUDY 61 58 90 NW8 29.93R  
MORRISVILLE CLOUDY 62 55 77 N9G23 29.92R  
ST. JOHNSBURY* N/A 65 58 78 MISG 29.85R  
LYNDONVILLE* CLOUDY 63 57 80 W8 29.90R  
MIDDLEBURY* CLOUDY 63 58 83 N8 29.91R  
RUTLAND* LGT RAIN 60 59 96 N8 29.90R  
SPRINGFIELD PTSUNNY 68 67 96 S5 29.86S  
HIGHGATE* CLOUDY 63 56 79 N5 29.92R  
NEWPORT* CLOUDY 59 54 84 CALM 29.91R  
BENNINGTON CLOUDY 68 63 84 SW6 29.90S  
 
_____LAKE CHAMPLAIN_____  
 
 
CITY SKY/WX TMP DP RH WIND PRES REMARKS
 
BURTON ISLAND* N/A 61 57 88 NW1 N/A  
COLCHESTER RF* N/A 61 55 82 NE7 N/A  
DIAMOND ISL* N/A 61 59 94 N14 N/A  
 

 
 
NYZ007-026>031-035-052-083-087-201800-  
_____NORTHERN NEW YORK_____  
 
 
CITY SKY/WX TMP DP RH WIND PRES REMARKS
 
PLATTSBURGH CLOUDY 66 54 65 N13 29.92R  
SARANAC LAKE LGT RAIN 56 54 93 W8 29.97R  
MASSENA CLOUDY 62 52 69 NW16G23 30.00R  
OGDENSBURG* PTSUNNY 63 51 66 NW13G21 30.02R  
POTSDAM* CLOUDY 61 52 72 NW8G20 29.99R  
WATERTOWN CLOUDY 65 54 67 NW10 30.01R  
FT DRUM CLOUDY 62 53 72 N9 30.00R  
ALBANY CLOUDY 71 65 81 W10 29.90R  
GLENS FALLS CLOUDY 69 65 86 SE6 29.88R  
 

 
NHZ002-005-011-201800-  
_____NEW HAMPSHIRE_____  
 
 
CITY SKY/WX TMP DP RH WIND PRES REMARKS
 
LEBANON LGT RAIN 67 62 84 CALM 29.85S FOG  
KEENE CLOUDY 70 67 90 W3 29.87S  
MT WASHINGTON DRZL/FOG 45 45 100 MISG N/A VSB 1/16  
PLYMOUTH CLOUDY 65 60 84 W6 29.84R  
WHITEFIELD CLOUDY 63 58 83 NW5 29.86R  
 

 
 
_____REGIONAL QUEBEC LOCATIONS_____  
 
 
CITY SKY/WX TMP DP RH WIND PRES REMARKS
 
MONTREAL PTSUNNY 64 54 68 NW12G17 29.92R  
QUEBEC CITY PTSUNNY 61 41 48 N9G22 29.88R  
SHERBROOKE CLOUDY 59 54 82 W9 29.88R  
 
_____REGIONAL ONTARIO LOCATIONS_____  
 
 
CITY SKY/WX TMP DP RH WIND PRES REMARKS
 
OTTAWA PTSUNNY 57 45 62 NW13G22 30.03R  
 
______KEY______  
VSB - VISIBILITY IN MILES  
WCI - WIND CHILL INDEX  
HX - HEAT INDEX  

 
NNNN  
 
 
CLICK HERE TO GO TO PREVIOUS BULLETINS.

The Nexlab VT Page
The Nexlab NY Page Main Text Page